User: anonymous   Login
Location: Boitzum
(52.1496°N, 9.6943°E)
Time: 16:16:11
(UTC+00:00)
Language:

Cosmos 1805 Rocket - Orbit

View from above orbital plane
View from above orbital plane
View from above satellite
View from above satellite

Ground track
Ground track

The orbit is defined by the following mean orbital elements,

1 17192U          26076.20303692 +.00000000 +00000-0 +43486-4 0 00008
2 17192  82.5061 135.0820 0016212   5.8425  55.6638 14.85921045    01
Epoch (UTC): 17 March 2026 04:52:22
Eccentricity: 0.0016212
inclination: 82.5061°
perigee height: 599 km
apogee height: 622 km
right ascension of ascending node: 135.0820°
argument of perigee: 5.8425°
revolutions per day: 14.85921045
mean anomaly at epoch: 55.6638°

The dashed part of the orbit path shows where the satellite is in the earth's shadow,  

DLR